GPS BIIR-2 (PRN 13) 1 24876U 97035A 25259.48110959 .00000015 00000+0 00000+0 0 9995 2 24876 55.8489 109.2819 0095292 56.2714 304.7157 2.00562893206460 GPS BIIR-5 (PRN 22) 1 26407U 00040A 25259.84370574 .00000005 00000+0 00000+0 0 9997 2 26407 54.9168 226.0205 0130658 299.9766 252.8367 2.00566830184468 GPS BIIR-8 (PRN 16) 1 27663U 03005A 25259.38821116 .00000013 00000+0 00000+0 0 9997 2 27663 54.9500 225.8489 0143457 50.6801 307.2684 2.00575626165815 GPS BIIR-11 (PRN 19) 1 28190U 04009A 25259.73386187 .00000002 00000+0 00000+0 0 9999 2 28190 55.0596 286.7245 0107552 165.5118 244.3301 2.00564079157466 GPS BIIR-13 (PRN 02) 1 28474U 04045A 25259.55475207 -.00000097 00000+0 00000+0 0 9991 2 28474 55.2809 335.9140 0167695 306.0644 33.1932 2.00565430152934 GPS BIIRM-1 (PRN 17) 1 28874U 05038A 25259.13284591 .00000008 00000+0 00000+0 0 9997 2 28874 55.1056 284.2271 0133734 291.3458 66.1727 2.00553965146333 GPS BIIRM-2 (PRN 31) 1 29486U 06042A 25255.79825051 .00000003 00000+0 00000+0 0 9998 2 29486 54.6858 162.3498 0106132 49.1341 323.0206 2.00557617138837 GPS BIIRM-3 (PRN 12) 1 29601U 06052A 25259.69797802 .00000006 00000+0 00000+0 0 9996 2 29601 54.9950 224.8490 0085127 86.9539 273.9971 2.00568260137923 GPS BIIRM-4 (PRN 15) 1 32260U 07047A 25259.50384417 .00000013 00000+0 00000+0 0 9998 2 32260 53.8909 91.3609 0164466 83.6780 278.2609 2.00568025131328 GPS BIIRM-5 (PRN 29) 1 32384U 07062A 25259.33114331 .00000007 00000+0 00000+0 0 9992 2 32384 55.2543 285.1508 0032588 163.4059 200.6593 2.00572995130029 GPS BIIRM-6 (PRN 07) 1 32711U 08012A 25259.42286760 -.00000038 00000+0 00000+0 0 9993 2 32711 54.4664 160.8593 0200598 244.2250 113.7318 2.00561603128266 GPS BIIRM-8 (PRN 05) 1 35752U 09043A 25259.41283446 -.00000060 00000+0 00000+0 0 9998 2 35752 56.0331 38.2244 0054700 81.7120 288.1961 2.00570642117875 GPS BIIF-1 (PRN 25) 1 36585U 10022A 25258.50662029 .00000018 00000+0 00000+0 0 9991 2 36585 54.3218 219.6286 0122563 64.2614 132.8666 2.00574542112081 GPS BIIF-3 (PRN 24) 1 38833U 12053A 25259.10227652 -.00000035 00000+0 00000+0 0 9991 2 38833 53.5438 154.8286 0171686 62.3310 299.4491 2.00564114 93949 GPS BIIF-4 (PRN 27) 1 39166U 13023A 25258.96604745 .00000015 00000+0 00000+0 0 9991 2 39166 54.7243 280.1344 0133460 48.1429 313.0358 2.00565451 90380 GPS BIIF-5 (PRN 30) 1 39533U 14008A 25259.96062469 -.00000039 00000+0 00000+0 0 9992 2 39533 53.6195 160.4642 0078381 226.2800 133.1084 2.00569267 84205 GPS BIIF-6 (PRN 06) 1 39741U 14026A 25259.24210158 -.00000103 00000+0 00000+0 0 9996 2 39741 56.6150 342.1807 0035967 317.0566 42.7055 2.00567465 83045 GPS BIIF-7 (PRN 09) 1 40105U 14045A 25259.83146257 .00000020 00000+0 00000+0 0 9993 2 40105 55.1718 99.3657 0032820 117.0621 243.3486 2.00567174 80595 GPS BIIF-8 (PRN 03) 1 40294U 14068A 25259.20638746 -.00000050 00000+0 00000+0 0 9991 2 40294 56.7954 41.5293 0061807 69.6920 290.9779 2.00559377 79710 GPS BIIF-9 (PRN 26) 1 40534U 15013A 25259.83761994 -.00000012 00000+0 00000+0 0 9998 2 40534 53.2189 215.4856 0102417 36.2493 324.4118 2.00567595 76341 GPS BIIF-10 (PRN 08) 1 40730U 15033A 25259.50124293 .00000013 00000+0 00000+0 0 9997 2 40730 54.2030 278.3604 0105857 25.3515 335.2088 2.00569964 74503 GPS BIIF-11 (PRN 10) 1 41019U 15062A 25258.06355498 -.00000047 00000+0 00000+0 0 9991 2 41019 56.7701 41.4296 0106929 228.0337 131.0602 2.00566921 72318 GPS BIIF-12 (PRN 32) 1 41328U 16007A 25259.14235960 .00000015 00000+0 00000+0 0 9999 2 41328 55.3514 100.3332 0088619 242.5224 116.6464 2.00565274 70341 GPS BIII-1 (PRN 04) 1 43873U 18109A 25259.80157052 .00000020 00000+0 00000+0 0 9995 2 43873 55.5141 102.9790 0035167 194.4908 176.1910 2.00573988 49597 GPS BIII-2 (PRN 18) 1 44506U 19056A 25259.92753154 -.00000104 00000+0 00000+0 0 9993 2 44506 55.7520 342.0002 0056711 195.8937 161.5505 2.00563656 44585 GPS BIII-3 (PRN 23) 1 45854U 20041A 25260.25290971 -.00000060 00000+0 00000+0 0 9998 2 45854 56.4896 39.5521 0057640 200.1296 337.1278 2.00563902 38563 GPS BIII-4 (PRN 14) 1 46826U 20078A 25259.28929001 .00000007 00000+0 00000+0 0 9992 2 46826 54.0398 221.8877 0062730 203.5982 326.6587 2.00567036 36015 GPS BIII-5 (PRN 11) 1 48859U 21054A 25259.30171979 -.00000105 00000+0 00000+0 0 9991 2 48859 55.2862 343.4658 0023321 228.2745 140.4750 2.00557957 31261 GPS BIII-6 (PRN 28) 1 55268U 23009A 25255.75588914 .00000003 00000+0 00000+0 0 9997 2 55268 55.0960 159.4194 0003743 346.1561 23.2907 2.00562749 19681 GPS BIII-7 (PRN 01) 1 62339U 24242A 25259.61481626 -.00000108 00000+0 00000+0 0 9992 2 62339 54.9490 345.2706 0007919 342.1257 8.9740 2.00565830 5768 GPS BIII-8 (PRN 21) 1 64202U 25116A 25257.12389619 -.00000048 00000+0 00000+0 0 9990 2 64202 55.0418 42.2585 0002025 300.3572 243.4027 2.00564202 2335